| time (UTC) | temp F | wind direction | speed knots | gust knots | rain 1hr in | rain 24hr in | rain mn in | humidity % | barometer mb |
| 20260507132517 | 70 | 180 | 7.0 | 13.0 | 0.00 | 0.00 | 0.00 | 62 | 1011.7 |
| 20260507131517 | 70 | 203 | 7.0 | 11.3 | 0.00 | 0.00 | 0.00 | 62 | 1011.8 |
| 20260507130517 | 70 | 180 | 8.7 | 17.4 | 0.00 | 0.00 | 0.00 | 63 | 1012.1 |
| 20260507125537 | 68 | 158 | 13.0 | 24.3 | 0.00 | 0.00 | 0.00 | 63 | 1012.0 |
| 20260507124517 | 69 | 180 | 8.7 | 16.5 | 0.00 | 0.00 | 0.00 | 60 | 1012.0 |
| 20260507123517 | 69 | 180 | 7.0 | 13.0 | 0.00 | 0.00 | 0.00 | 58 | 1012.0 |
| 20260507122537 | 69 | 180 | 4.3 | 8.7 | 0.00 | 0.00 | 0.00 | 55 | 1012.0 |
| 20260507121516 | 70 | 225 | 2.6 | 6.1 | 0.00 | 0.00 | 0.00 | 52 | 1012.3 |
| 20260507120516 | 70 | 135 | 3.5 | 13.0 | 0.00 | 0.00 | 0.00 | 52 | 1012.4 |
| 20260507115517 | 71 | 180 | 4.3 | 10.4 | 0.00 | 0.00 | 0.00 | 52 | 1012.3 |
| 20260507114517 | 71 | 180 | 5.2 | 9.6 | 0.00 | 0.00 | 0.00 | 53 | 1012.4 |
| 20260507113517 | 70 | 158 | 2.6 | 7.0 | 0.00 | 0.00 | 0.00 | 53 | 1012.5 |
| 20260507112517 | 69 | 135 | 3.5 | 7.0 | 0.00 | 0.00 | 0.00 | 54 | 1012.7 |
| 20260507111517 | 69 | 158 | 5.2 | 8.7 | 0.00 | 0.00 | 0.00 | 54 | 1012.9 |
| 20260507110517 | 69 | 180 | 3.5 | 7.8 | 0.00 | 0.00 | 0.00 | 56 | 1013.0 |
| 20260507105516 | 68 | 45 | 3.5 | 7.8 | 0.00 | 0.00 | 0.00 | 55 | 1013.1 |
| 20260507104516 | 68 | 135 | 2.6 | 7.8 | 0.00 | 0.00 | 0.00 | 58 | 1013.2 |
| 20260507103637 | 68 | 68 | 5.2 | 8.7 | 0.00 | 0.00 | 0.00 | 59 | 1013.4 |
| 20260507102517 | 67 | 113 | 4.3 | 8.7 | 0.00 | 0.00 | 0.00 | 61 | 1013.6 |
| 20260507101517 | 66 | 90 | 3.5 | 7.8 | 0.00 | 0.00 | 0.00 | 62 | 1013.6 |
| 20260507100516 | 65 | 135 | 3.5 | 8.7 | 0.00 | 0.00 | 0.00 | 63 | 1013.7 |
| 20260507095517 | 66 | 68 | 5.2 | 9.6 | 0.00 | 0.00 | 0.00 | 64 | 1014.0 |
| 20260507094517 | 65 | 90 | 3.5 | 7.0 | 0.00 | 0.00 | 0.00 | 65 | 1013.9 |
| 20260507093516 | 65 | 90 | 3.5 | 7.8 | 0.00 | 0.00 | 0.00 | 66 | 1014.0 |
| 20260507092517 | 64 | 158 | 2.6 | 7.0 | 0.00 | 0.00 | 0.00 | 68 | 1014.2 |
| 20260507091516 | 64 | 158 | 2.6 | 7.0 | 0.00 | 0.00 | 0.00 | 67 | 1014.1 |
| 20260507090516 | 64 | 45 | 2.6 | 7.8 | 0.00 | 0.00 | 0.00 | 68 | 1014.0 |
| 20260507085516 | 64 | 135 | 2.6 | 6.1 | 0.00 | 0.00 | 0.00 | 70 | 1014.0 |
| 20260507084517 | 63 | 45 | 2.6 | 6.1 | 0.00 | 0.00 | 0.00 | 71 | 1013.9 |
| 20260507083516 | 63 | 68 | 3.5 | 7.0 | 0.00 | 0.00 | 0.00 | 71 | 1014.1 |
| 20260507082516 | 62 | 113 | 2.6 | 6.1 | 0.00 | 0.00 | 0.00 | 71 | 1014.2 |
| 20260507081536 | 62 | 23 | 0.9 | 3.5 | 0.00 | 0.00 | 0.00 | 72 | 1014.1 |
| 20260507080516 | 61 | 135 | 1.7 | 3.5 | 0.00 | 0.00 | 0.00 | 71 | 1014.2 |
| 20260507075536 | 61 | 23 | 1.7 | 3.5 | 0.00 | 0.00 | 0.00 | 71 | 1014.3 |
| 20260507074518 | 60 | 68 | 1.7 | 2.6 | 0.00 | 0.00 | 0.00 | 72 | 1014.4 |
| 20260507073519 | 59 | 90 | 1.7 | 2.6 | 0.00 | 0.00 | 0.00 | 74 | 1014.4 |
| 20260507072518 | 57 | 45 | 1.7 | 2.6 | 0.00 | 0.00 | 0.00 | 77 | 1014.4 |
| 20260507071518 | 56 | 45 | 0.9 | 2.6 | 0.00 | 0.00 | 0.00 | 78 | 1014.4 |
| 20260507070518 | 55 | 0 | 0.9 | 1.7 | 0.00 | 0.00 | 0.00 | 79 | 1014.3 |
| 20260507065518 | 54 | 23 | 1.7 | 2.6 | 0.00 | 0.00 | 0.00 | 81 | 1014.4 |
| 20260507064518 | 53 | 0.0 | 1.7 | 0.00 | 0.00 | 0.00 | 83 | 1014.4 | |
| 20260507063518 | 51 | 203 | 0.9 | 1.7 | 0.00 | 0.00 | 0.00 | 85 | 1014.1 |
| 20260507062540 | 50 | 203 | 0.9 | 1.7 | 0.00 | 0.00 | 0.00 | 87 | 1013.9 |
| 20260507061538 | 48 | 203 | 0.9 | 1.7 | 0.00 | 0.00 | 0.00 | 90 | 1013.9 |
| 20260507060539 | 47 | 315 | 0.9 | 1.7 | 0.00 | 0.00 | 0.00 | 90 | 1013.9 |
| 20260507055519 | 46 | 315 | 2.6 | 3.5 | 0.00 | 0.00 | 0.00 | 91 | 1013.8 |
| 20260507054518 | 45 | 315 | 1.7 | 3.5 | 0.00 | 0.00 | 0.00 | 92 | 1013.9 |
| 20260507053518 | 45 | 293 | 0.9 | 2.6 | 0.00 | 0.00 | 0.00 | 92 | 1013.8 |
| 20260507052518 | 44 | 293 | 0.9 | 2.6 | 0.00 | 0.00 | 0.00 | 92 | 1013.7 |
| 20260507051518 | 44 | 293 | 0.9 | 2.6 | 0.00 | 0.00 | 0.00 | 92 | 1013.5 |
| 20260507050518 | 44 | 293 | 0.9 | 2.6 | 0.00 | 0.00 | 0.00 | 92 | 1013.6 |
| 20260507045518 | 44 | 293 | 0.9 | 2.6 | 0.00 | 0.00 | 0.00 | 91 | 1013.4 |
| 20260507044518 | 44 | 315 | 1.7 | 3.5 | 0.00 | 0.00 | 0.00 | 92 | 1013.4 |
| 20260507043517 | 45 | 293 | 1.7 | 2.6 | 0.00 | 0.00 | 0.00 | 91 | 1013.5 |
| 20260507042538 | 45 | 0.0 | 1.7 | 0.00 | 0.00 | 0.00 | 91 | 1013.5 | |
| 20260507041538 | 45 | 293 | 0.9 | 1.7 | 0.00 | 0.00 | 0.00 | 91 | 1013.5 |
| 20260507040518 | 45 | 0.0 | 0.9 | 0.00 | 0.00 | 0.00 | 91 | 1013.6 | |
| 20260507035517 | 45 | 293 | 0.9 | 1.7 | 0.00 | 0.00 | 0.00 | 91 | 1013.5 |
| 20260507034518 | 45 | 293 | 0.9 | 2.6 | 0.00 | 0.00 | 0.00 | 91 | 1013.4 |
| 20260507033517 | 45 | 315 | 1.7 | 2.6 | 0.00 | 0.00 | 0.00 | 91 | 1013.5 |
| 20260507032518 | 45 | 315 | 1.7 | 3.5 | 0.00 | 0.00 | 0.00 | 91 | 1013.6 |
| 20260507031518 | 45 | 315 | 0.9 | 2.6 | 0.00 | 0.00 | 0.00 | 91 | 1013.5 |
| 20260507030518 | 45 | 315 | 0.9 | 1.7 | 0.00 | 0.00 | 0.00 | 91 | 1013.5 |
| 20260507025518 | 45 | 315 | 0.9 | 1.7 | 0.00 | 0.00 | 0.00 | 91 | 1013.4 |
| 20260507024538 | 45 | 293 | 1.7 | 3.5 | 0.00 | 0.00 | 0.00 | 91 | 1013.3 |
| 20260507023518 | 45 | 315 | 1.7 | 3.5 | 0.00 | 0.00 | 0.00 | 91 | 1013.3 |
| 20260507022517 | 45 | 315 | 2.6 | 4.3 | 0.00 | 0.00 | 0.00 | 91 | 1013.3 |
| 20260507021538 | 45 | 293 | 1.7 | 3.5 | 0.00 | 0.00 | 0.00 | 91 | 1013.4 |
| 20260507020517 | 45 | 293 | 2.6 | 3.5 | 0.00 | 0.00 | 0.00 | 90 | 1013.4 |
| 20260507015517 | 46 | 293 | 1.7 | 5.2 | 0.00 | 0.00 | 0.00 | 90 | 1013.5 |
| 20260507014517 | 46 | 293 | 1.7 | 5.2 | 0.00 | 0.00 | 0.00 | 90 | 1013.5 |
| 20260507013517 | 46 | 315 | 1.7 | 3.5 | 0.00 | 0.01 | 0.00 | 90 | 1013.5 |
| 20260507012517 | 46 | 293 | 1.7 | 3.5 | 0.00 | 0.01 | 0.00 | 89 | 1013.5 |
| 20260507011517 | 47 | 293 | 0.9 | 2.6 | 0.00 | 0.01 | 0.00 | 89 | 1013.4 |
| 20260507010517 | 47 | 293 | 1.7 | 3.5 | 0.00 | 0.01 | 0.00 | 89 | 1013.4 |
| 20260507005517 | 47 | 270 | 1.7 | 3.5 | 0.00 | 0.01 | 0.00 | 89 | 1013.5 |
| 20260507004557 | 47 | 293 | 1.7 | 3.5 | 0.00 | 0.01 | 0.00 | 89 | 1013.6 |
| 20260507003537 | 47 | 0.0 | 1.7 | 0.00 | 0.01 | 0.00 | 89 | 1013.7 | |
| 20260507002517 | 47 | 315 | 1.7 | 3.5 | 0.00 | 0.01 | 0.00 | 89 | 1013.7 |
| 20260507001518 | 47 | 270 | 1.7 | 3.5 | 0.00 | 0.01 | 0.00 | 88 | 1013.6 |
| 20260507000517 | 48 | 293 | 1.7 | 2.6 | 0.00 | 0.01 | 0.00 | 88 | 1013.7 |
| 20260506235518 | 48 | 270 | 1.7 | 2.6 | 0.00 | 0.01 | 0.01 | 88 | 1013.7 |
| 20260506234518 | 48 | 293 | 2.6 | 4.3 | 0.00 | 0.01 | 0.01 | 88 | 1013.7 |
| 20260506233518 | 48 | 315 | 3.5 | 6.1 | 0.00 | 0.01 | 0.01 | 88 | 1013.7 |
| 20260506232518 | 48 | 293 | 2.6 | 5.2 | 0.00 | 0.01 | 0.01 | 87 | 1013.7 |
| 20260506231518 | 49 | 293 | 0.9 | 2.6 | 0.00 | 0.01 | 0.01 | 87 | 1013.7 |
| 20260506230518 | 49 | 293 | 1.7 | 3.5 | 0.00 | 0.01 | 0.01 | 87 | 1013.7 |
| 20260506225518 | 49 | 293 | 1.7 | 3.5 | 0.00 | 0.01 | 0.01 | 86 | 1013.5 |
| 20260506224518 | 50 | 293 | 2.6 | 5.2 | 0.00 | 0.01 | 0.01 | 85 | 1013.5 |
| 20260506223518 | 50 | 315 | 2.6 | 4.3 | 0.00 | 0.01 | 0.01 | 85 | 1013.6 |
| 20260506222517 | 51 | 293 | 2.6 | 3.5 | 0.00 | 0.01 | 0.01 | 83 | 1013.5 |
| 20260506221517 | 51 | 293 | 2.6 | 4.3 | 0.00 | 0.01 | 0.01 | 83 | 1013.4 |
| 20260506220517 | 52 | 293 | 2.6 | 4.3 | 0.00 | 0.01 | 0.01 | 81 | 1013.3 |
| 20260506215517 | 53 | 293 | 1.7 | 5.2 | 0.00 | 0.01 | 0.01 | 79 | 1013.2 |
| 20260506214517 | 55 | 293 | 1.7 | 2.6 | 0.00 | 0.01 | 0.01 | 78 | 1013.2 |
| 20260506213518 | 55 | 270 | 0.9 | 1.7 | 0.00 | 0.01 | 0.01 | 76 | 1013.2 |
| 20260506212517 | 56 | 270 | 0.9 | 2.6 | 0.00 | 0.01 | 0.01 | 75 | 1013.1 |
| 20260506211517 | 57 | 270 | 0.9 | 1.7 | 0.00 | 0.01 | 0.01 | 73 | 1013.1 |
| 20260506210518 | 58 | 180 | 1.7 | 4.3 | 0.00 | 0.01 | 0.01 | 71 | 1013.0 |
| 20260506205517 | 58 | 135 | 4.3 | 7.8 | 0.00 | 0.01 | 0.01 | 70 | 1012.9 |
| 20260506204518 | 58 | 135 | 6.1 | 10.4 | 0.00 | 0.01 | 0.01 | 69 | 1012.8 |
| 20260506203518 | 59 | 135 | 3.5 | 7.0 | 0.00 | 0.01 | 0.01 | 69 | 1012.7 |
| 20260506202517 | 59 | 135 | 4.3 | 8.7 | 0.00 | 0.01 | 0.01 | 68 | 1012.4 |
| 20260506201538 | 59 | 135 | 3.5 | 7.0 | 0.00 | 0.01 | 0.01 | 68 | 1012.2 |
| 20260506200518 | 60 | 135 | 2.6 | 7.0 | 0.00 | 0.01 | 0.01 | 67 | 1012.2 |
| 20260506195517 | 60 | 135 | 5.2 | 9.6 | 0.00 | 0.01 | 0.01 | 68 | 1012.0 |
| 20260506194558 | 60 | 135 | 4.3 | 9.6 | 0.00 | 0.01 | 0.01 | 68 | 1011.8 |
| 20260506193518 | 61 | 135 | 5.2 | 7.8 | 0.00 | 0.01 | 0.01 | 67 | 1011.6 |
| 20260506192517 | 62 | 113 | 5.2 | 7.8 | 0.00 | 0.01 | 0.01 | 66 | 1011.5 |
| 20260506191517 | 62 | 135 | 3.5 | 7.0 | 0.00 | 0.01 | 0.01 | 64 | 1011.2 |
| 20260506190517 | 63 | 135 | 4.3 | 7.0 | 0.00 | 0.01 | 0.01 | 62 | 1011.1 |
| 20260506185538 | 65 | 135 | 6.1 | 10.4 | 0.00 | 0.01 | 0.01 | 59 | 1010.9 |
| 20260506184517 | 67 | 45 | 1.7 | 7.0 | 0.00 | 0.01 | 0.01 | 53 | 1010.9 |
| 20260506183517 | 68 | 293 | 0.9 | 2.6 | 0.00 | 0.01 | 0.01 | 48 | 1010.8 |
| 20260506182518 | 68 | 315 | 1.7 | 3.5 | 0.00 | 0.01 | 0.01 | 47 | 1010.5 |
| 20260506181517 | 68 | 270 | 2.6 | 5.2 | 0.00 | 0.01 | 0.01 | 46 | 1010.4 |
| 20260506180517 | 69 | 293 | 3.5 | 6.1 | 0.00 | 0.01 | 0.01 | 45 | 1010.4 |
| 20260506175517 | 69 | 248 | 2.6 | 6.1 | 0.00 | 0.01 | 0.01 | 45 | 1010.2 |
| 20260506174517 | 70 | 270 | 3.5 | 8.7 | 0.00 | 0.01 | 0.01 | 43 | 1010.2 |
| 20260506173537 | 69 | 270 | 4.3 | 9.6 | 0.00 | 0.01 | 0.01 | 43 | 1010.1 |
| 20260506172517 | 70 | 270 | 4.3 | 7.8 | 0.00 | 0.01 | 0.01 | 43 | 1010.0 |
| 20260506171517 | 69 | 293 | 4.3 | 8.7 | 0.00 | 0.01 | 0.01 | 44 | 1010.0 |
| 20260506170517 | 69 | 293 | 5.2 | 9.6 | 0.00 | 0.01 | 0.01 | 44 | 1010.1 |
| 20260506165617 | 70 | 270 | 5.2 | 10.4 | 0.00 | 0.01 | 0.01 | 43 | 1010.0 |
| 20260506164517 | 70 | 293 | 4.3 | 9.6 | 0.00 | 0.01 | 0.01 | 43 | 1009.9 |
| 20260506163518 | 70 | 248 | 5.2 | 10.4 | 0.00 | 0.01 | 0.01 | 44 | 1010.0 |
| 20260506162517 | 71 | 270 | 6.1 | 11.3 | 0.00 | 0.01 | 0.01 | 42 | 1010.0 |
| 20260506161517 | 70 | 270 | 3.5 | 8.7 | 0.00 | 0.01 | 0.01 | 43 | 1009.9 |
| 20260506160517 | 70 | 270 | 5.2 | 10.4 | 0.00 | 0.01 | 0.01 | 41 | 1010.0 |
| 20260506155517 | 70 | 248 | 5.2 | 10.4 | 0.00 | 0.01 | 0.01 | 44 | 1010.0 |
| 20260506154517 | 70 | 293 | 4.3 | 10.4 | 0.00 | 0.01 | 0.01 | 44 | 1010.1 |
| 20260506153557 | 69 | 270 | 6.1 | 9.6 | 0.00 | 0.01 | 0.01 | 43 | 1010.1 |
| 20260506152517 | 69 | 270 | 5.2 | 12.2 | 0.00 | 0.01 | 0.01 | 45 | 1010.1 |
| 20260506151517 | 69 | 270 | 7.0 | 13.0 | 0.00 | 0.01 | 0.01 | 44 | 1010.2 |
| 20260506150517 | 70 | 293 | 8.7 | 15.6 | 0.00 | 0.01 | 0.01 | 44 | 1010.3 |
| 20260506145537 | 70 | 270 | 6.1 | 10.4 | 0.00 | 0.01 | 0.01 | 44 | 1010.4 |
| 20260506144517 | 70 | 270 | 4.3 | 10.4 | 0.00 | 0.01 | 0.01 | 43 | 1010.5 |
| 20260506143517 | 69 | 270 | 5.2 | 11.3 | 0.00 | 0.01 | 0.01 | 46 | 1010.6 |
| 20260506142517 | 68 | 270 | 3.5 | 8.7 | 0.00 | 0.01 | 0.01 | 47 | 1010.5 |
| 20260506141537 | 69 | 293 | 7.0 | 13.0 | 0.00 | 0.01 | 0.01 | 44 | 1010.7 |
| 20260506140516 | 69 | 293 | 6.1 | 11.3 | 0.00 | 0.01 | 0.01 | 45 | 1010.7 |
| 20260506135516 | 69 | 270 | 3.5 | 7.0 | 0.00 | 0.01 | 0.01 | 46 | 1010.8 |
| 20260506134517 | 69 | 248 | 5.2 | 9.6 | 0.00 | 0.01 | 0.01 | 45 | 1010.9 |
| 20260506133516 | 69 | 315 | 4.3 | 8.7 | 0.00 | 0.01 | 0.01 | 47 | 1011.1 |